Flag for U.S.A. Weather past 2 weeks in Los Angeles, California, U.S.A.

Now
69 °F

Scattered clouds.


Feels Like: 69 °F
Forecast: 61 / 75 °F
Wind: 3 mph from North

Location: Los Angeles / USC Campus Downtown

Current Time: Jul 5, 2015 at 6:32:10 PM

Latest Report: Jul 5, 2015 at 5:47 PM


Visibility: 10 mi

Pressure: 29.93 "Hg

Humidity: 70%

Dew point: 59 °F

Location of Los AngelesLocation

Historic Weather in Los Angeles — Graph

°F

Los Angeles temperature yesterday

Maximum temperature yesterday: 78 °F (at 11:47 AM)
Minimum temperature yesterday: 63 °F (at 12:47 AM)
Average temperature yesterday: 69 °F

Past Weeks' High & Low Weather Summary

 TemperatureHumidityPressure
High90 °F (Jun 29, 12:47 PM)96% (Jun 26, 4:57 AM)30.02 "Hg (Jun 26, 4:57 AM)
Low60 °F (Jun 26, 4:57 AM)23% (Jun 30, 7:47 PM)29.76 "Hg (Jun 30, 7:47 PM)
Average71 °F68%29.90 "Hg
* Reported Jun 20 4:47 PM — Jul 5 4:47 PM, Los Angeles, Weather by CustomWeather, © 2015

Note: Actual official high and low records may vary slightly from our data, if they occured in-between our weather recording intervals... More about our weather records

Advertising

Los Angeles weather history for previous 24 hours

 ConditionsComfort  
Time TempWeatherWind HumidityBarometerVisibility
4:47 PM
Sun, Jul 5
71 °FScattered clouds.3 mph68%29.93 "Hg10 mi
3:47 PM73 °FSunny.5 mph64%29.94 "Hg10 mi
2:47 PM75 °FSunny.5 mph62%29.94 "Hg10 mi
1:47 PM75 °FPassing clouds.6 mph60%29.95 "Hg10 mi
12:47 PM74 °FOvercast.No wind62%29.97 "Hg10 mi
11:47 AM72 °FOvercast.3 mph66%29.99 "Hg9 mi
10:47 AM69 °FOvercast.No wind70%29.98 "Hg7 mi
9:47 AM68 °FOvercast.No wind73%29.97 "Hg7 mi
8:47 AM67 °FOvercast.3 mph76%29.97 "Hg8 mi
7:47 AM67 °FOvercast.No wind76%29.96 "Hg7 mi
6:47 AM66 °FOvercast.No wind75%29.95 "Hg6 mi
5:47 AM66 °FOvercast.No wind75%29.93 "Hg7 mi
4:47 AM66 °FOvercast.No wind75%29.92 "Hg8 mi
3:47 AM66 °FOvercast.No wind75%29.92 "Hg8 mi
2:47 AM65 °FOvercast.No wind81%29.92 "Hg9 mi
1:47 AM65 °FOvercast.No wind81%29.93 "Hg10 mi
12:47 AM64 °FOvercast.No wind84%29.93 "Hg10 mi
11:47 PM
Sat, Jul 4
64 °FLow clouds.No wind84%29.93 "Hg6 mi
10:47 PM63 °FLow clouds.No wind84%29.93 "Hg5 mi
9:47 PM65 °FOvercast.No wind81%29.92 "Hg6 mi
8:47 PM64 °FOvercast.No wind84%29.89 "Hg10 mi
7:47 PM66 °FPassing clouds.No wind78%29.88 "Hg10 mi
6:47 PM69 °FPassing clouds.5 mph73%29.85 "Hg10 mi
Weather by CustomWeather, © 2015

See weather overviewHow to use our weather pages